Location: Unspecified
(43.4680°N, 87.1740°E)
Time: 20:54:35
(UTC+00:00)

CZ-2D R/B - Pass Details

Date: 02 August 2021
Orbit: 553 x 637 km, 97.9° (Epoch: 20 September)

Event Time Altitude Azimuth Distance (km) Brightness Sun altitude
Rises 21:46:10 0° 12° (NNE) 2,778 7.8 -12.6°
Reaches altitude 10° 21:48:18 10° 12° (NNE) 1,887 6.8 -12.3°
Maximum altitude 21:52:23 87° 285° (WNW) 590 3.4 -11.7°
Drops below altitude 10° 21:56:33 10° 196° (SSW) 1,921 5.6 -11.1°
Enters shadow 21:56:39 10° 196° (SSW) 1,958 5.7 -11.1°
